Location: Camps Bay
(33.9517°S, 18.3844°E)
Time: 09:47:43
(UTC+00:00)

Cosmos 1025 Rocket - Pass Details

Date: 18 January 2020
Orbit: 594 x 618 km, 82.5° (Epoch: 18 February)

Event Time Altitude Azimuth Distance (km) Brightness Sun altitude
Exits shadow 02:49:49 - 355° (N) 2,318 5.6 -12.2°
Reaches altitude 10° 02:50:41 10° 355° (N) 1,962 5.3 -12.0°
Maximum altitude 02:55:03 89° 85° (E) 625 3.1 -11.3°
Drops below altitude 10° 02:59:30 10° 173° (S) 2,004 6.3 -10.5°
Sets 03:01:45 0° 173° (S) 2,921 7.2 -10.1°
